Weather in Gagarino

Russia / Lipetsk Oblast     53°20′35″N   39°41′56″E
temp.,
°C
wind,
m/s
gust,
m/s
humid.,
%
clouds,
%
prec.,
mm/h
press.,
hPa
HPBL,
m
9 may, sun
sun900:00+11sw5993100 0.4 1005373
03:00+9ssw3697100 0.6 1005215
06:00+8sw5893100 0.3 1006408
09:00+7sw4588100 0.4 1007569
12:00+5nw81193100 0.1 1010635
15:00+4nw81396100 0.4 1013684
18:00+5nw81291100 0.1 10161054
21:00+6nnw8168376 0.2 10181171
10 may, mon
mon1000:00+4nnw51290100 0.0 1020438
03:00+3nnw5149264 0.0 1021448
06:00+4n7168499 0.0 1023625
09:00+9n915653 0.0 10241196
12:00+11nne9125238 0.0 10241317
15:00+13nne91358100 0.0 10231342
18:00+11nne8136968 0.0 1023981
21:00+9nne71580100 0.0 1024665
11 may, tue
tue1100:00+8nne91881100 0.0 1023500
03:00+8nne81783100 0.0 1023482
06:00+8nne71687100 0.1 1023504
09:00+10ne71589100 0.3 1024573
12:00+14ne7118291 0.0 1024867
15:00+15ese6981100 0.3 1024868
18:00+15ene238758 0.3 102579
21:00+12s3588100 0.8 1025124
12 may, wed
wed1200:00+10ssw3595100 4.5 1024252
03:00+9e1195100 7.6 102482
06:00+9ene2297100 1.3 1024107
09:00+10ne249790 6.5 1023221
12:00+15e357329 0.1 1023913
15:00+14ene4480100 0.1 1022611
18:00+13ene2390100 0.1 1022113
21:00+12ene2396100 0.1 102177
13 may, thu
thu1300:00+12ese2397100 0.0 102055
03:00+11ese3798100 0.0 1020206
06:00+12ese3698100 0.5 1020276
09:00+12ese3796100 1.2 1019296
12:00+17ese457965 0.1 1018780
15:00+19se347099 0.1 10181082
18:00+18se358050 0.4 1018401
21:00+14ese3693100 0.4 1018117